Location: Bothwell
(41.7170°N, 112.2589°W)
Time: 17:26:51
(UTC+00:00)

Vanguard 2 - Pass Details

Date: 14 May 2026
Orbit: 553 x 2894 km, 32.9° (Epoch: 9 June)

Event Time Altitude Azimuth Distance (km) Brightness Sun altitude
Rises 16:39:34 0° 274° (W) 5,777 11.6 48.0°
Reaches altitude 10° 16:46:41 10° 251° (WSW) 4,163 11.1 49.3°
Maximum altitude 16:50:41 13° 229° (SW) 3,559 10.9 50.0°
Drops below altitude 10° 16:54:08 10° 206° (SSW) 3,419 11.0 50.6°
Sets 16:58:42 0° 178° (S) 3,898 11.4 51.3°
